Weather History for Frenchville, ME

Change the Weather History Date:

Friday, May 10, 2013

  Actual Average Record
Temperature  
Mean Temperature 52 °F 49 °F  
Max Temperature 57 °F 59 °F 81 °F (2007)
Min Temperature 46 °F 39 °F 28 °F (2004)
Degree Days  
Heating Degree Days 13    
Month to date heating degree days 61  
Since 1 July heating degree days 8542  
Cooling Degree Days 0    
Month to date cooling degree days 4  
Year to date cooling degree days 4  
Growing Degree Days 2 (Base 50)    
Moisture  
Dew Point 49 °F    
Average Humidity 84    
Maximum Humidity 100    
Minimum Humidity 62    
Precipitation  
Precipitation 0.01 in 0.09 in 1.01 in (2012)
Month to date precipitation 0.08 0.92  
Year to date precipitation 4.28 7.78  
Sea Level Pressure  
Sea Level Pressure 29.93 in    
Wind  
Wind Speed 9 mph (NW)    
Max Wind Speed 22 mph    
Max Gust Speed 26 mph    
Visibility 10 miles    
Events      
T = Trace of Precipitation, MM = Missing Value Source: NWS Daily Summary

Daily Weather History Graph

Daily Weather History Graph

Search for Another Location

Airport:

Trip Planner

Search our weather history database for the weather conditions in past years. The results will help you decide how hot, cold, wet, or windy it might be!

Date:

Astronomy

May. 10, 2013 Rise Set
Actual Time 5:03 AM EDT 7:56 PM EDT
Civil Twilight 4:27 AM EDT 8:32 PM EDT
Nautical Twilight 3:42 AM EDT 9:18 PM EDT
Astronomical Twilight 2:47 AM EDT 10:13 PM EDT
Moon 5:24 AM EDT (5/10) 8:44 PM EDT (5/10)
Length of Visible Light 16h 04m
Length of Day
14h 53m
New Moon, 0% of the Moon is Illuminated
May 10
New Moon
May 18
First Quarter
May 25
Full
May 31
Last Quarter
Jun 8
New

Hourly Weather History & Observations

Time (EDT) Temp. Windchill Dew Point Humidity Pressure Visibility Wind Dir Wind Speed Gust Speed Precip Events Conditions
12:04 AM 57.2 °F - 55.4 °F 94% 29.87 in 10.0 mi South 8.1 mph - N/A   Overcast
12:53 AM 57.2 °F - 55.4 °F 94% 29.86 in 10.0 mi South 4.6 mph - N/A   Overcast
1:32 AM 57.2 °F - 55.4 °F 94% 29.86 in 10.0 mi Calm Calm - N/A   Overcast
1:53 AM 57.0 °F - 55.0 °F 93% 29.85 in 10.0 mi South 3.5 mph - N/A   Overcast
2:31 AM 57.2 °F - 55.4 °F 94% 29.85 in 10.0 mi South 4.6 mph - N/A   Overcast
2:53 AM 55.9 °F - 55.0 °F 97% 29.85 in 10.0 mi South 4.6 mph - N/A   Overcast
3:53 AM 55.4 °F - 55.4 °F 100% 29.86 in 10.0 mi SSW 4.6 mph - N/A   Overcast
4:53 AM 55.9 °F - 55.0 °F 97% 29.86 in 4.0 mi West 4.6 mph - N/A   Overcast
5:53 AM 55.9 °F - 55.0 °F 97% 29.88 in 10.0 mi NW 3.5 mph - 0.00 in   Overcast
6:09 AM 55.4 °F - 55.4 °F 100% 29.88 in 10.0 mi West 4.6 mph - N/A   Overcast
6:53 AM 57.0 °F - 55.0 °F 93% 29.89 in 10.0 mi NNW 6.9 mph - N/A   Overcast
7:33 AM 55.4 °F - 53.6 °F 94% 29.90 in 9.0 mi NW 11.5 mph - N/A   Overcast
7:46 AM 55.4 °F - 53.6 °F 94% 29.91 in 10.0 mi NNW 10.4 mph - N/A   Overcast
7:53 AM 54.0 °F - 53.1 °F 97% 29.91 in 10.0 mi NNW 8.1 mph - N/A   Overcast
8:53 AM 52.0 °F - 50.0 °F 93% 29.92 in 10.0 mi NW 10.4 mph - 0.00 in   Overcast
9:53 AM 50.0 °F - 46.9 °F 89% 29.94 in 10.0 mi NNW 13.8 mph - N/A   Overcast
10:35 AM 51.8 °F - 46.4 °F 82% 29.94 in 10.0 mi North 11.5 mph - N/A   Overcast
10:53 AM 53.1 °F - 48.0 °F 83% 29.94 in 10.0 mi NNW 16.1 mph 24.2 mph N/A   Overcast
11:53 AM 53.1 °F - 46.9 °F 80% 29.94 in 10.0 mi NNW 16.1 mph 24.2 mph N/A   Overcast
12:38 PM 53.6 °F - 46.4 °F 77% 29.95 in 10.0 mi NNW 16.1 mph 21.9 mph N/A   Overcast
12:53 PM 54.0 °F - 46.0 °F 75% 29.95 in 10.0 mi NNW 17.3 mph 23.0 mph N/A   Overcast
1:53 PM 51.1 °F - 44.1 °F 77% 29.97 in 10.0 mi NNW 17.3 mph - N/A   Overcast
2:13 PM 51.8 °F - 42.8 °F 71% 29.96 in 10.0 mi North 18.4 mph 24.2 mph N/A   Overcast
2:53 PM 52.0 °F - 44.1 °F 74% 29.97 in 10.0 mi NNW 17.3 mph 23.0 mph N/A   Overcast
3:53 PM 55.9 °F - 44.1 °F 64% 29.97 in 10.0 mi North 9.2 mph 17.3 mph 0.01 in   Overcast
4:53 PM 55.9 °F - 43.0 °F 62% 29.98 in 10.0 mi NNW 12.7 mph - N/A   Mostly Cloudy
5:53 PM 55.0 °F - 42.1 °F 62% 29.98 in 10.0 mi NNW 12.7 mph - N/A   Clear
6:53 PM 53.1 °F - 41.0 °F 64% 29.99 in 10.0 mi North 9.2 mph - N/A   Clear
7:53 PM 50.0 °F - 41.0 °F 71% 30.00 in 10.0 mi NNW 8.1 mph - N/A   Clear
8:53 PM 48.9 °F - 41.0 °F 74% 30.01 in 10.0 mi North 4.6 mph - N/A   Clear
9:53 PM 46.9 °F - 41.0 °F 80% 30.02 in 10.0 mi Calm Calm - N/A   Clear
10:53 PM 46.9 °F - 41.0 °F 80% 30.02 in 10.0 mi North 4.6 mph - N/A   Clear
11:53 PM 46.0 °F 43.1 °F 39.9 °F 79% 30.01 in 10.0 mi NNE 5.8 mph - N/A   Clear